| time (UTC) | temp F | wind direction | speed MPH | gust MPH | rain 1hr in | rain 24hr in | rain mn in | humidity % | barometer mb |
| 20260507163018 | 36 | 270 | 3.0 | 12.0 | 0.00 | 0.03 | 0.00 | 92 | 1027.9 |
| 20260507160017 | 35 | 270 | 3.0 | 14.0 | 0.00 | 0.03 | 0.00 | 91 | 1028.1 |
| 20260507153018 | 35 | 270 | 3.0 | 13.0 | 0.00 | 0.03 | 0.00 | 90 | 1028.1 |
| 20260507150018 | 35 | 270 | 3.0 | 11.0 | 0.00 | 0.03 | 0.00 | 90 | 1028.4 |
| 20260507143018 | 35 | 270 | 3.0 | 13.0 | 0.00 | 0.03 | 0.00 | 89 | 1028.2 |
| 20260507140057 | 35 | 270 | 3.0 | 15.0 | 0.00 | 0.03 | 0.03 | 88 | 1028.7 |
| 20260507133019 | 35 | 158 | 3.0 | 13.0 | 0.00 | 0.03 | 0.03 | 87 | 1028.4 |
| 20260507130040 | 34 | 270 | 3.0 | 9.0 | 0.00 | 0.03 | 0.03 | 87 | 1028.0 |
| 20260507123018 | 34 | 270 | 2.0 | 9.0 | 0.00 | 0.03 | 0.03 | 87 | 1028.0 |
| 20260507120018 | 34 | 270 | 3.0 | 12.0 | 0.00 | 0.03 | 0.03 | 87 | 1028.0 |
| 20260507113019 | 35 | 270 | 4.0 | 11.0 | 0.00 | 0.03 | 0.03 | 86 | 1027.8 |
| 20260507110020 | 35 | 248 | 2.0 | 11.0 | 0.00 | 0.03 | 0.03 | 85 | 1027.4 |
| 20260507103023 | 35 | 270 | 4.0 | 11.0 | 0.00 | 0.03 | 0.03 | 85 | 1027.6 |
| 20260507100038 | 35 | 270 | 4.0 | 14.0 | 0.00 | 0.03 | 0.03 | 85 | 1027.9 |
| 20260507093018 | 36 | 270 | 2.0 | 10.0 | 0.00 | 0.03 | 0.03 | 84 | 1028.0 |
| 20260507090057 | 36 | 270 | 3.0 | 9.0 | 0.00 | 0.03 | 0.03 | 83 | 1027.6 |
| 20260507083018 | 36 | 270 | 3.0 | 12.0 | 0.00 | 0.03 | 0.03 | 80 | 1027.6 |
| 20260507080017 | 37 | 270 | 4.0 | 11.0 | 0.00 | 0.03 | 0.03 | 78 | 1027.0 |
| 20260507073017 | 38 | 270 | 3.0 | 10.0 | 0.00 | 0.03 | 0.03 | 78 | 1026.9 |
| 20260507070017 | 38 | 270 | 4.0 | 14.0 | 0.00 | 0.03 | 0.03 | 75 | 1026.2 |
| 20260507063024 | 40 | 270 | 5.0 | 15.0 | 0.00 | 0.03 | 0.03 | 74 | 1026.0 |
| 20260507053018 | 41 | 270 | 6.0 | 13.0 | 0.00 | 0.03 | 0.03 | 70 | 1025.7 |
| 20260507050017 | 41 | 270 | 6.0 | 14.0 | 0.00 | 0.03 | 0.03 | 70 | 1025.6 |
| 20260507043017 | 41 | 270 | 7.0 | 17.0 | 0.00 | 0.03 | 0.03 | 67 | 1025.4 |
| 20260507040017 | 42 | 270 | 7.0 | 15.0 | 0.00 | 0.03 | 0.03 | 71 | 1025.4 |
| 20260507033017 | 40 | 270 | 5.0 | 13.0 | 0.00 | 0.03 | 0.03 | 73 | 1025.0 |
| 20260507030022 | 40 | 270 | 6.0 | 15.0 | 0.00 | 0.03 | 0.03 | 76 | 1024.8 |
| 20260507023019 | 40 | 270 | 7.0 | 16.0 | 0.00 | 0.03 | 0.03 | 76 | 1024.6 |
| 20260507020027 | 42 | 270 | 6.0 | 18.0 | 0.00 | 0.03 | 0.03 | 81 | 1024.6 |
| 20260507013017 | 40 | 270 | 5.0 | 14.0 | 0.00 | 0.03 | 0.03 | 82 | 1024.4 |
| 20260507010016 | 40 | 270 | 7.0 | 15.0 | 0.00 | 0.03 | 0.03 | 80 | 1024.3 |
| 20260507003017 | 40 | 270 | 5.0 | 17.0 | 0.00 | 0.03 | 0.03 | 88 | 1023.9 |
| 20260507000017 | 39 | 270 | 5.0 | 13.0 | 0.00 | 0.03 | 0.03 | 95 | 1023.9 |
| 20260506233017 | 38 | 270 | 6.0 | 18.0 | 0.01 | 0.03 | 0.03 | 95 | 1023.0 |
| 20260506230018 | 37 | 270 | 5.0 | 18.0 | 0.01 | 0.03 | 0.03 | 95 | 1022.6 |
| 20260506223016 | 39 | 270 | 9.0 | 16.0 | 0.01 | 0.02 | 0.02 | 95 | 1022.6 |
| 20260506220018 | 42 | 270 | 6.0 | 12.0 | 0.01 | 0.02 | 0.02 | 95 | 1022.5 |
| 20260506213016 | 42 | 270 | 5.0 | 13.0 | 0.01 | 0.01 | 0.01 | 94 | 1022.5 |
| 20260506210040 | 41 | 270 | 5.0 | 12.0 | 0.01 | 0.01 | 0.01 | 94 | 1022.4 |
| 20260506203019 | 42 | 270 | 5.0 | 12.0 | 0.00 | 0.00 | 0.00 | 93 | 1022.2 |
| 20260506200039 | 42 | 270 | 5.0 | 11.0 | 0.00 | 0.00 | 0.00 | 92 | 1022.7 |
| 20260506193018 | 42 | 270 | 6.0 | 10.0 | 0.00 | 0.00 | 0.00 | 92 | 1023.2 |
| 20260506190019 | 42 | 270 | 5.0 | 12.0 | 0.00 | 0.00 | 0.00 | 91 | 1023.5 |
| 20260506183019 | 41 | 270 | 3.0 | 9.0 | 0.00 | 0.00 | 0.00 | 90 | 1023.4 |
| 20260506180018 | 42 | 270 | 3.0 | 11.0 | 0.00 | 0.00 | 0.00 | 90 | 1023.9 |
| 20260506173018 | 41 | 270 | 3.0 | 10.0 | 0.00 | 0.00 | 0.00 | 89 | 1024.2 |
| 20260506170018 | 42 | 270 | 3.0 | 9.0 | 0.00 | 0.00 | 0.00 | 90 | 1024.7 |